User: anonymous   Login
Location: Newark
(7.0858°N, 171.3717°E)
Time: 17:46:04
(UTC+00:00)
Language:

Vanguard 3 - Orbit

View from above orbital plane
View from above orbital plane
View from above satellite
View from above satellite

Ground track
Ground track

The orbit data is extracted from the following two-line orbital elements,

1 00020U 59007A   21127.25011640  .00000008  00000-0 -58584-5 0  9999
2 00020  33.3444 108.4044 1666418 184.5430 173.8080 11.55805288268076
Epoch (UTC): 07 May 2021 06:00:10
Eccentricity: 0.1666418
inclination: 33.3444°
perigee height: 508 km
apogee height: 3262 km
right ascension of ascending node: 108.4044°
argument of perigee: 184.5430°
revolutions per day: 11.55805288
mean anomaly at epoch: 173.8080°
orbit number at epoch: 26807

The dashed part of the orbit path shows where the satellite is in the earth's shadow,  

DLR